EW6472 Weather Reports


time (UTC)temp
C
wind
direction
speed
KPH
gust
KPH
rain 1hr
cm
rain 24hr
cm
rain mn
cm
humidity
%
barometer
mb
20260508021504 20 257 4.8 12.9 0.00 0.00 0.00 66 1011.5
20260508020008 21 207 4.8 19.3 0.00 0.00 0.00 64 1011.4
20260508014502 21 230 3.2 14.5 0.00 0.00 0.00 64 1011.3
20260508013003 21 241 4.8 14.5 0.00 0.00 0.00 63 1011.2
20260508011501 21 248 6.4 17.7 0.00 0.00 0.00 63 1011.2
20260508010108 22 183 6.4 16.1 0.00 0.00 0.00 62 1011.2
20260508004605 22 235 4.8 16.1 0.00 0.00 0.00 60 1011.1
20260508003112 22 250 4.8 17.7 0.00 0.00 0.00 60 1011.2
20260508001559 23 250 6.4 17.7 0.00 0.00 0.00 58 1011.2
20260508000057 23 239 8.0 19.3 0.00 0.00 0.00 58 1011.1
20260507234558 23 230 4.8 14.5 0.00 0.00 0.00 58 1011.2
20260507233058 23 250 6.4 19.3 0.00 0.00 0.00 58 1011.2
20260507231608 23 245 4.8 19.3 0.00 0.00 0.00 57 1011.2
20260507230056 24 198 6.4 22.5 0.00 0.00 0.00 54 1011.2
20260507224604 24 169 4.8 14.5 0.00 0.00 0.00 55 1011.4
20260507223053 24 247 11.3 19.3 0.00 0.00 0.00 54 1011.4
20260507221551 24 156 4.8 20.9 0.00 0.00 0.00 56 1011.4
20260507220048 24 248 6.4 20.9 0.00 0.00 0.00 54 1011.8
20260507214553 24 233 8.0 16.1 0.00 0.00 0.00 53 1011.8
20260507213102 24 243 9.7 19.3 0.00 0.00 0.00 53 1012.1
20260507211544 24 197 6.4 17.7 0.00 0.00 0.00 54 1012.1
20260507210048 25 225 6.4 16.1 0.00 0.00 0.00 53 1012.2
20260507204548 25 234 4.8 16.1 0.00 0.00 0.00 52 1012.3
20260507203038 25 210 4.8 19.3 0.00 0.00 0.00 55 1012.3
20260507201539 25 188 3.2 12.9 0.00 0.00 0.00 55 1012.4
20260507200037 24 225 8.0 17.7 0.00 0.00 0.00 55 1012.7
20260507194530 25 203 3.2 14.5 0.00 0.00 0.00 54 1012.7
20260507193028 24 250 4.8 12.9 0.00 0.00 0.00 54 1012.8
20260507191523 23 253 1.6 11.3 0.00 0.00 0.00 55 1013.0
20260507190034 23 240 4.8 12.9 0.00 0.00 0.00 54 1013.3
20260507184526 23 248 4.8 12.9 0.00 0.00 0.00 56 1013.6
20260507183019 22 200 0.0 9.7 0.00 0.00 0.00 59 1013.6
20260507181514 22 225 3.2 8.0 0.00 0.00 0.00 59 1013.7
20260507180013 21 253 4.8 9.7 0.00 0.00 0.00 61 1013.9
20260507174510 21 254 3.2 9.7 0.00 0.00 0.00 63 1014.0
20260507173006 21 251 1.6 8.0 0.00 0.00 0.00 65 1014.0
20260507171506 21 243 1.6 8.0 0.00 0.00 0.00 64 1014.0
20260507170004 20 186 0.0 6.4 0.00 0.00 0.00 66 1014.0
20260507164558 19 255 0.0 6.4 0.00 0.00 0.00 70 1014.2
20260507163055 18 127 0.0 4.8 0.00 0.00 0.00 72 1014.3
20260507161556 17 199 1.6 9.7 0.00 0.00 0.00 73 1014.4
20260507160059 17 215 1.6 4.8 0.00 0.00 0.00 74 1014.4
20260507154549 17 324 0.0 4.8 0.00 0.00 0.00 77 1014.5
20260507153054 17 293 1.6 6.4 0.00 0.00 0.00 75 1014.6
20260507151548 16 231 0.0 4.8 0.00 0.00 0.00 77 1014.5
20260507150043 16 182 0.0 4.8 0.00 0.00 0.00 79 1014.6
20260507144545 15 194 0.0 6.4 0.00 0.00 0.00 80 1014.6
20260507143038 15 247 0.0 3.2 0.00 0.00 0.00 80 1014.5
20260507141536 15 84 0.0 1.6 0.00 0.00 0.00 79 1014.3
20260507140048 14 84 0.0 1.6 0.00 0.00 0.00 83 1014.1
20260507134534 12 84 0.0 0.0 0.00 0.00 0.00 87 1014.0
20260507133034 12 84 0.0 1.6 0.00 0.00 0.00 89 1013.9
20260507131535 12 84 0.0 0.0 0.00 0.00 0.00 89 1013.7
20260507130031 12 84 0.0 0.0 0.00 0.00 0.00 88 1013.5
20260507124529 12 84 0.0 0.0 0.00 0.00 0.00 87 1013.5
20260507123033 12 105 0.0 0.0 0.00 0.00 0.00 87 1013.5
20260507121536 12 112 0.0 3.2 0.00 0.00 0.00 87 1013.6
20260507120024 12 112 0.0 1.6 0.00 0.00 0.00 87 1013.7
20260507114522 12 112 0.0 0.0 0.00 0.00 0.00 86 1013.7
20260507113030 12 112 0.0 3.2 0.00 0.00 0.00 86 1013.6
20260507111522 12 112 0.0 0.0 0.00 0.00 0.00 84 1013.7
20260507110017 13 89 0.0 3.2 0.00 0.00 0.00 84 1013.8
20260507104514 12 79 1.6 4.8 0.00 0.00 0.00 85 1013.8
20260507103015 12 92 0.0 0.0 0.00 0.00 0.00 84 1014.0
20260507101509 13 92 0.0 0.0 0.00 0.00 0.00 83 1014.0
20260507100011 13 77 0.0 3.2 0.00 0.00 0.00 82 1014.1
20260507094505 13 77 0.0 3.2 0.00 0.00 0.00 83 1014.1
20260507093005 13 91 0.0 1.6 0.00 0.00 0.00 82 1014.3
20260507091609 13 91 0.0 1.6 0.00 0.00 0.00 82 1014.6
20260507090058 13 91 0.0 3.2 0.00 0.00 0.00 81 1014.6
20260507084558 13 108 0.0 1.6 0.00 0.00 0.00 83 1014.8
20260507083059 13 108 0.0 1.6 0.00 0.00 0.00 82 1014.9
20260507081553 13 108 0.0 0.0 0.00 0.00 0.00 82 1014.9
20260507080114 13 108 0.0 1.6 0.00 0.00 0.00 82 1015.0
20260507074556 14 238 0.0 0.0 0.00 0.00 0.00 81 1015.0
20260507073057 14 238 0.0 0.0 0.00 0.00 0.00 82 1015.0
20260507071559 14 238 0.0 0.0 0.00 0.00 0.00 80 1015.0
20260507070043 15 238 0.0 0.0 0.00 0.00 0.00 79 1015.0
20260507064546 15 238 0.0 0.0 0.00 0.00 0.00 80 1015.2
20260507063042 14 238 0.0 0.0 0.00 0.00 0.00 80 1015.3
20260507061542 15 238 0.0 0.0 0.00 0.00 0.00 78 1015.2
20260507060046 15 238 0.0 0.0 0.00 0.00 0.00 76 1015.2
20260507054549 15 238 0.0 0.0 0.00 0.00 0.00 76 1015.3
20260507053045 16 238 0.0 0.0 0.00 0.00 0.00 75 1015.2
20260507051540 16 238 0.0 1.6 0.00 0.00 0.00 74 1015.1
20260507050039 16 240 0.0 1.6 0.00 0.00 0.00 73 1015.0
20260507044538 16 233 0.0 1.6 0.00 0.00 0.00 71 1015.0
20260507043039 17 239 0.0 3.2 0.00 0.00 0.00 70 1015.0
20260507041537 17 260 0.0 1.6 0.00 0.00 0.00 69 1014.9
20260507040043 17 275 0.0 4.8 0.00 0.00 0.00 67 1014.8
20260507034535 18 248 0.0 6.4 0.00 0.00 0.00 64 1014.6
20260507033038 18 285 0.0 4.8 0.00 0.00 0.00 63 1014.5
20260507031535 18 248 0.0 4.8 0.00 0.00 0.00 65 1014.3
20260507030035 18 212 3.2 8.0 0.00 0.00 0.00 65 1014.1
20260507024535 19 150 0.0 8.0 0.00 0.00 0.00 62 1014.0
20260507023033 20 148 1.6 9.7 0.00 0.00 0.00 60 1013.8